TimeMDT,TemperatureF,Dew PointF,Humidity,Sea Level PressureIn,VisibilityMPH,Wind Direction,Wind SpeedMPH,Gust SpeedMPH,PrecipitationIn,Events,Conditions,WindDirDegrees,DateUTC
12:56 AM,6.1,-0.9,73,30.23,-9999.0,Calm,Calm,-,N/A,,Unknown,0,2013-04-17 06:56:00
1:56 AM,7.0,-0.9,70,30.21,-9999.0,Variable,3.5,-,N/A,,Unknown,0,2013-04-17 07:56:00
2:56 AM,3.9,-2.0,76,30.22,-9999.0,Calm,Calm,-,N/A,,Unknown,0,2013-04-17 08:56:00
3:56 AM,1.0,-2.9,83,30.23,-9999.0,Calm,Calm,-,N/A,,Unknown,0,2013-04-17 09:56:00
4:56 AM,3.9,-2.9,73,30.22,-9999.0,Variable,4.6,-,N/A,,Unknown,0,2013-04-17 10:56:00
5:56 AM,1.9,-4.0,76,30.23,-9999.0,Calm,Calm,-,N/A,,Unknown,0,2013-04-17 11:56:00
6:56 AM,-2.9,-7.1,82,30.28,-9999.0,Calm,Calm,-,N/A,,Unknown,0,2013-04-17 12:56:00
7:56 AM,5.0,-0.9,76,30.26,-9999.0,Calm,Calm,-,N/A,,Unknown,0,2013-04-17 13:56:00
8:56 AM,8.1,-0.9,67,30.26,-9999.0,Variable,3.5,-,N/A,,Unknown,0,2013-04-17 14:56:00
9:56 AM,14.0,1.9,59,30.23,-9999.0,Calm,Calm,-,N/A,,Unknown,0,2013-04-17 15:56:00
10:56 AM,16.0,1.9,54,30.23,-9999.0,Variable,3.5,-,N/A,,Unknown,0,2013-04-17 16:56:00
11:56 AM,19.9,1.9,46,30.22,-9999.0,Variable,4.6,-,N/A,,Unknown,0,2013-04-17 17:56:00
12:56 PM,19.9,1.0,44,30.23,-9999.0,North,8.1,-,N/A,,Unknown,10,2013-04-17 18:56:00
1:56 PM,23.0,1.0,39,30.19,-9999.0,NW,8.1,-,N/A,,Unknown,310,2013-04-17 19:56:00
2:56 PM,23.0,1.9,40,30.22,-9999.0,Variable,6.9,17.3,N/A,,Unknown,0,2013-04-17 20:56:00
3:56 PM,24.1,1.9,38,30.23,-9999.0,Variable,5.8,-,N/A,,Unknown,0,2013-04-17 21:56:00
4:56 PM,23.0,3.0,42,30.24,-9999.0,Variable,6.9,23.0,N/A,,Unknown,0,2013-04-17 22:56:00
5:56 PM,21.0,3.0,46,30.29,-9999.0,WNW,8.1,20.7,N/A,,Unknown,300,2013-04-17 23:56:00
6:56 PM,19.0,1.0,46,30.36,-9999.0,NNW,11.5,17.3,N/A,,Unknown,330,2013-04-18 00:56:00
7:56 PM,16.0,-0.0,49,30.34,-9999.0,Variable,5.8,-,N/A,,Unknown,0,2013-04-18 01:56:00
8:56 PM,12.9,1.0,59,30.37,-9999.0,Calm,Calm,-,N/A,,Unknown,0,2013-04-18 02:56:00
9:56 PM,9.0,1.0,70,30.37,-9999.0,Calm,Calm,-,N/A,,Unknown,0,2013-04-18 03:56:00
10:56 PM,3.0,-2.9,76,30.40,-9999.0,Calm,Calm,-,N/A,,Unknown,0,2013-04-18 04:56:00
11:56 PM,-0.0,-5.1,79,30.38,-9999.0,Calm,Calm,-,N/A,,Unknown,0,2013-04-18 05:56:00